When you browse on this site, cookies collect data to enhance your experience and personalize the content and advertising you see.
Visit our Privacy Policy to learn more. By continuing to use the site, you agree to this use of cookies and data.
EN

Hourly Weather Bulawayo

Today, 13 August, Thursday

Time Temperature Precipitation Wind Pressure Humidity
00:00 +14°C° 0 mm 2 mps 650 mmHg 18%
01:00 +14°C° 0 mm 2 mps 650 mmHg 18%
02:00 +13°C° 0 mm 2 mps 650 mmHg 18%
03:00 +13°C° 0 mm 1 mps 650 mmHg 18%
04:00 +13°C° 0 mm 1 mps 650 mmHg 18%
05:00 +13°C° 0 mm 1 mps 650 mmHg 18%
06:00 +15°C° 0 mm 1 mps 651 mmHg 15%
07:00 +19°C° 0 mm 1 mps 652 mmHg 13%
08:00 +21°C° 0 mm 1 mps 653 mmHg 11%
09:00 +24°C° 0 mm 2 mps 653 mmHg 10%
10:00 +27°C° 0 mm 3 mps 654 mmHg 10%
11:00 +30°C° 0 mm 4 mps 654 mmHg 9%
12:00 +30°C° 0 mm 4 mps 654 mmHg 9%
13:00 +30°C° 0 mm 5 mps 653 mmHg 9%
14:00 +32°C° 0 mm 5 mps 653 mmHg 9%
15:00 +30°C° 0 mm 5 mps 652 mmHg 9%
16:00 +29°C° 0 mm 5 mps 652 mmHg 10%
17:00 +28°C° 0 mm 5 mps 652 mmHg 11%
18:00 +25°C° 0 mm 4 mps 651 mmHg 13%
19:00 +21°C° 0 mm 4 mps 651 mmHg 16%
20:00 +19°C° 0 mm 3 mps 651 mmHg 19%
21:00 +18°C° 0 mm 3 mps 651 mmHg 20%
22:00 +17°C° 0 mm 3 mps 651 mmHg 21%
23:00 +16°C° 0 mm 2 mps 651 mmHg 22%

Tomorrow, 14 August, Friday

Time Temperature Precipitation Wind Pressure Humidity
00:00 +16°C° 0 mm 2 mps 651 mmHg 23%
01:00 +15°C° 0 mm 2 mps 651 mmHg 24%
02:00 +15°C° 0 mm 2 mps 651 mmHg 25%
03:00 +12°C° 0 mm 3 mps 651 mmHg 30%
04:00 +11°C° 0 mm 4 mps 650 mmHg 35%
05:00 +9°C° 0 mm 5 mps 650 mmHg 40%
06:00 +10°C° 0 mm 5 mps 651 mmHg 47%
07:00 +10°C° 0 mm 5 mps 651 mmHg 54%
08:00 +10°C° 0 mm 6 mps 652 mmHg 62%
09:00 +14°C° 0 mm 6 mps 653 mmHg 53%
10:00 +17°C° 0 mm 5 mps 653 mmHg 44%
11:00 +21°C° 0 mm 5 mps 654 mmHg 35%
12:00 +23°C° 0 mm 5 mps 654 mmHg 29%
13:00 +26°C° 0 mm 4 mps 653 mmHg 24%
14:00 +27°C° 0 mm 4 mps 653 mmHg 19%
15:00 +26°C° 0 mm 4 mps 652 mmHg 21%
16:00 +26°C° 0 mm 4 mps 652 mmHg 22%
17:00 +25°C° 0 mm 5 mps 651 mmHg 24%
18:00 +21°C° 0 mm 4 mps 651 mmHg 33%
19:00 +18°C° 0 mm 4 mps 650 mmHg 42%
20:00 +15°C° 0 mm 4 mps 649 mmHg 51%
21:00 +14°C° 0 mm 4 mps 649 mmHg 58%
22:00 +13°C° 0 mm 4 mps 649 mmHg 65%
23:00 +12°C° 0 mm 3 mps 649 mmHg 72%

Day after tomorrow, 15 August, Saturday

Time Temperature Precipitation Wind Pressure Humidity
00:00 +11°C° 0 mm 3 mps 649 mmHg 72%
01:00 +11°C° 0 mm 3 mps 648 mmHg 73%
02:00 +10°C° 0 mm 2 mps 648 mmHg 73%
03:00 +10°C° 0 mm 2 mps 648 mmHg 76%
04:00 +9°C° 0 mm 2 mps 648 mmHg 78%
05:00 +9°C° 0 mm 2 mps 648 mmHg 80%
06:00 +12°C° 0 mm 2 mps 648 mmHg 69%
07:00 +13°C° 0 mm 2 mps 649 mmHg 58%
08:00 +14°C° 0 mm 3 mps 650 mmHg 46%
09:00 +19°C° 0 mm 3 mps 651 mmHg 37%
10:00 +22°C° 0 mm 3 mps 651 mmHg 27%
11:00 +26°C° 0 mm 3 mps 652 mmHg 18%
12:00 +28°C° 0 mm 2 mps 651 mmHg 15%
13:00 +29°C° 0 mm 2 mps 651 mmHg 13%
14:00 +31°C° 0 mm 1 mps 650 mmHg 10%
15:00 +30°C° 0 mm 1 mps 650 mmHg 10%
16:00 +29°C° 0 mm 1 mps 649 mmHg 11%
17:00 +28°C° 0 mm 1 mps 649 mmHg 11%
18:00 +23°C° 0 mm 0 mps 648 mmHg 14%
19:00 +20°C° 0 mm 0 mps 648 mmHg 17%
20:00 +16°C° 0 mm 0 mps 647 mmHg 20%
21:00 +16°C° 0 mm 0 mps 647 mmHg 21%
22:00 +16°C° 0 mm 1 mps 647 mmHg 22%
23:00 +15°C° 0 mm 1 mps 647 mmHg 23%

16 August, Sunday

Time Temperature Precipitation Wind Pressure Humidity
00:00 +15°C° 0 mm 1 mps 647 mmHg 25%
01:00 +14°C° 0 mm 1 mps 647 mmHg 26%
02:00 +14°C° 0 mm 1 mps 646 mmHg 28%
03:00 +13°C° 0 mm 1 mps 646 mmHg 31%
04:00 +13°C° 0 mm 1 mps 646 mmHg 33%
05:00 +13°C° 0 mm 1 mps 646 mmHg 36%
06:00 +15°C° 0 mm 1 mps 647 mmHg 33%
07:00 +16°C° 0 mm 1 mps 648 mmHg 29%
08:00 +18°C° 0 mm 2 mps 649 mmHg 26%
09:00 +23°C° 0 mm 2 mps 650 mmHg 21%
10:00 +26°C° 0 mm 2 mps 650 mmHg 16%
11:00 +30°C° 0 mm 2 mps 651 mmHg 11%
12:00 +31°C° 0 mm 2 mps 651 mmHg 9%
13:00 +33°C° 0 mm 1 mps 651 mmHg 8%
14:00 +34°C° 0 mm 1 mps 650 mmHg 7%
15:00 +33°C° 0 mm 1 mps 650 mmHg 7%
16:00 +32°C° 0 mm 1 mps 649 mmHg 8%
17:00 +31°C° 0 mm 1 mps 649 mmHg 8%
18:00 +28°C° 0 mm 1 mps 648 mmHg 10%
19:00 +24°C° 0 mm 1 mps 648 mmHg 12%
20:00 +21°C° 0 mm 1 mps 648 mmHg 14%
21:00 +20°C° 0 mm 1 mps 648 mmHg 15%
22:00 +19°C° 0 mm 2 mps 648 mmHg 16%
23:00 +18°C° 0 mm 2 mps 648 mmHg 17%

17 August, Monday

Time Temperature Precipitation Wind Pressure Humidity
00:00 +18°C° 0 mm 2 mps 648 mmHg 17%
01:00 +17°C° 0 mm 2 mps 648 mmHg 18%
02:00 +17°C° 0 mm 2 mps 648 mmHg 18%
03:00 +16°C° 0 mm 2 mps 648 mmHg 19%
04:00 +14°C° 0 mm 3 mps 648 mmHg 20%
05:00 +13°C° 0 mm 3 mps 648 mmHg 22%
06:00 +14°C° 0 mm 4 mps 648 mmHg 26%
07:00 +14°C° 0 mm 5 mps 649 mmHg 31%
08:00 +14°C° 0 mm 6 mps 650 mmHg 36%
09:00 +16°C° 0 mm 6 mps 650 mmHg 38%
10:00 +19°C° 0 mm 6 mps 651 mmHg 39%
11:00 +22°C° 0 mm 6 mps 651 mmHg 41%
12:00 +23°C° 0 mm 6 mps 651 mmHg 36%
13:00 +26°C° 0 mm 5 mps 651 mmHg 30%
14:00 +28°C° 0 mm 5 mps 650 mmHg 25%
15:00 +27°C° 0 mm 5 mps 650 mmHg 28%
16:00 +26°C° 0 mm 6 mps 649 mmHg 32%
17:00 +24°C° 0 mm 6 mps 649 mmHg 36%
18:00 +21°C° 0 mm 6 mps 649 mmHg 48%
19:00 +17°C° 0 mm 6 mps 649 mmHg 61%
20:00 +14°C° 0 mm 6 mps 649 mmHg 73%
21:00 +14°C° 0 mm 6 mps 649 mmHg 79%
22:00 +13°C° 0 mm 6 mps 649 mmHg 84%
23:00 +12°C° 0 mm 5 mps 649 mmHg 90%

18 August, Tuesday

Time Temperature Precipitation Wind Pressure Humidity
00:00 +12°C° 0 mm 5 mps 648 mmHg 90%
01:00 +12°C° 0 mm 4 mps 648 mmHg 91%
02:00 +11°C° 0 mm 4 mps 648 mmHg 92%
03:00 +11°C° 0 mm 3 mps 648 mmHg 92%
04:00 +11°C° 0 mm 3 mps 647 mmHg 91%
05:00 +10°C° 0 mm 3 mps 647 mmHg 91%
06:00 +12°C° 0 mm 3 mps 648 mmHg 82%
07:00 +13°C° 0 mm 3 mps 649 mmHg 73%
08:00 +16°C° 0 mm 3 mps 650 mmHg 64%
09:00 +20°C° 0 mm 3 mps 651 mmHg 49%
10:00 +25°C° 0 mm 4 mps 651 mmHg 35%
11:00 +28°C° 0 mm 4 mps 652 mmHg 21%
12:00 +30°C° 0 mm 3 mps 652 mmHg 17%
13:00 +32°C° 0 mm 2 mps 651 mmHg 14%
14:00 +34°C° 0 mm 1 mps 651 mmHg 10%
15:00 +33°C° 0 mm 1 mps 650 mmHg 11%
16:00 +32°C° 0 mm 1 mps 650 mmHg 11%
17:00 +29°C° 0 mm 0 mps 649 mmHg 11%
18:00 +27°C° 0 mm 2 mps 649 mmHg 23%
19:00 +23°C° 0 mm 4 mps 649 mmHg 35%
20:00 +20°C° 0 mm 6 mps 649 mmHg 47%
21:00 +19°C° 0 mm 6 mps 649 mmHg 54%
22:00 +17°C° 0 mm 5 mps 649 mmHg 61%
23:00 +15°C° 0 mm 5 mps 649 mmHg 68%
Show more